sat.trackr.live / text

‹ back to catalog

GONETS-M 10

NORAD 40063 · 2014-036C

PAYLOAD ACTIVE UNKNOWN

§ Identity

Operator
Country
CIS
Launch date
2014-07-03
Launch site
PLMSC
Launch vehicle
Mass (kg)
RCS (m²)
1.72

External: N2YO · Heavens-Above · Gunter

§ Orbital elements

Epoch: 2026-09-20T05:07:13.076256Z

Period
115.85 min
Inclination
82.5064°
Eccentricity
0.0020718
Mean motion
12.42947463 rev/d
Perigee alt
1,477.8 km
Apogee alt
1,510.4 km
Semi-major
7,872.3 km
B*
-3.6079e-4
RAAN
248.6403°
Arg perigee
296.9184°
Mean anomaly
62.9778°
Rev number
55,405

§ Raw data

GONETS-M 101 40063U 14036C   26263.21334579 -.00000040  00000+0 -36079-3 0  99932 40063  82.5064 248.6403 0020718 296.9184  62.9778 12.42947463554054

JSON: /api/v1/satellites/40063 · /tle

For live sub-satellite position, see the globe view (requires WebGL).

§ Visibility from observer

Set your observer location to see the next 7 days of passes ≥ 10°. The values pass through the URL so the page stays shareable.

No JS? Fill the form by hand. The geolocation button needs JavaScript.

§ Radio — SatNOGS DB

ModeDescriptionDownlinkUplink
FM UHF Unknown 388.687 MHz
FM UHF Unknown 388.787 MHz

2 transmitters · refreshed weekly from db.satnogs.org